Time,TemperatureF,DewpointF,PressureIn,WindDirection,WindDirectionDegrees,WindSpeedMPH,WindSpeedGustMPH,Humidity,HourlyPrecipIn,Conditions,Clouds,dailyrainin,SoftwareType,DateUTC
2013-05-01 00:02:00,73.0,-99.9,29.76,ESE,123,15.0,19.0,-999,-99.99,,,-99.99,,2013-05-01 05:02:00,
2013-05-01 00:12:00,73.0,-99.9,29.77,SE,126,15.0,18.0,-999,-99.99,,,-99.99,,2013-05-01 05:12:00,
2013-05-01 00:22:00,73.0,-99.9,29.77,SE,127,15.0,16.0,-999,-99.99,,,-99.99,,2013-05-01 05:22:00,
2013-05-01 00:32:00,73.0,-99.9,29.76,SE,124,15.0,17.0,-999,-99.99,,,-99.99,,2013-05-01 05:32:00,
2013-05-01 00:42:00,73.0,-99.9,29.76,SE,126,15.0,17.0,-999,-99.99,,,-99.99,,2013-05-01 05:42:00,
2013-05-01 00:52:00,73.0,-99.9,29.76,SE,125,16.0,18.0,-999,-99.99,,,-99.99,,2013-05-01 05:52:00,
2013-05-01 01:02:00,73.0,-99.9,29.77,ESE,118,13.0,16.0,-999,-99.99,,,-99.99,,2013-05-01 06:02:00,
2013-05-01 01:12:00,73.0,-99.9,29.77,ESE,116,13.0,15.0,-999,-99.99,,,-99.99,,2013-05-01 06:12:00,
2013-05-01 01:22:00,73.0,-99.9,29.77,SE,126,13.0,15.0,-999,-99.99,,,-99.99,,2013-05-01 06:22:00,
2013-05-01 01:32:00,73.0,-99.9,29.77,SE,131,11.0,13.0,-999,-99.99,,,-99.99,,2013-05-01 06:32:00,
2013-05-01 01:42:00,73.0,-99.9,29.77,SE,131,10.0,12.0,-999,-99.99,,,-99.99,,2013-05-01 06:42:00,
2013-05-01 01:52:00,72.0,-99.9,29.77,SE,135,9.0,10.0,-999,-99.99,,,-99.99,,2013-05-01 06:52:00,
2013-05-01 02:01:00,72.0,-99.9,29.77,SE,141,9.0,10.0,-999,-99.99,,,-99.99,,2013-05-01 07:01:00,
2013-05-01 02:11:00,72.0,-99.9,29.77,SE,141,9.0,10.0,-999,-99.99,,,-99.99,,2013-05-01 07:11:00,
2013-05-01 02:22:00,72.0,-99.9,29.77,SE,145,9.0,10.0,-999,-99.99,,,-99.99,,2013-05-01 07:22:00,
2013-05-01 02:32:00,72.0,-99.9,29.77,SSE,147,8.0,9.0,-999,-99.99,,,-99.99,,2013-05-01 07:32:00,
2013-05-01 02:42:00,72.0,-99.9,29.77,SSE,149,9.0,9.0,-999,-99.99,,,-99.99,,2013-05-01 07:42:00,
2013-05-01 02:52:00,72.0,-99.9,29.77,SSE,153,8.0,9.0,-999,-99.99,,,-99.99,,2013-05-01 07:52:00,
2013-05-01 03:02:00,72.0,-99.9,29.76,SSE,164,7.0,8.0,-999,-99.99,,,-99.99,,2013-05-01 08:02:00,
2013-05-01 03:12:00,72.0,-99.9,29.75,SSE,154,8.0,9.0,-999,-99.99,,,-99.99,,2013-05-01 08:12:00,
2013-05-01 03:22:00,72.0,-99.9,29.75,SE,139,7.0,8.0,-999,-99.99,,,-99.99,,2013-05-01 08:22:00,
2013-05-01 03:32:00,72.0,-99.9,29.75,SE,126,8.0,9.0,-999,-99.99,,,-99.99,,2013-05-01 08:32:00,
2013-05-01 03:42:00,72.0,-99.9,29.75,ESE,120,8.0,9.0,-999,-99.99,,,-99.99,,2013-05-01 08:42:00,
2013-05-01 03:53:00,72.0,-99.9,29.74,ESE,115,9.0,9.0,-999,-99.99,,,-99.99,,2013-05-01 08:53:00,
2013-05-01 04:02:00,72.0,-99.9,29.74,ESE,118,10.0,11.0,-999,-99.99,,,-99.99,,2013-05-01 09:02:00,
2013-05-01 04:12:00,72.0,-99.9,29.74,ESE,120,10.0,11.0,-999,-99.99,,,-99.99,,2013-05-01 09:12:00,
2013-05-01 04:22:00,72.0,-99.9,29.73,SE,131,10.0,11.0,-999,-99.99,,,-99.99,,2013-05-01 09:22:00,
2013-05-01 04:33:00,72.0,-99.9,29.73,SE,133,9.0,11.0,-999,-99.99,,,-99.99,,2013-05-01 09:33:00,
2013-05-01 04:43:00,72.0,-99.9,29.74,SE,127,9.0,10.0,-999,-99.99,,,-99.99,,2013-05-01 09:43:00,
2013-05-01 04:53:00,72.0,-99.9,29.73,SE,127,8.0,9.0,-999,-99.99,,,-99.99,,2013-05-01 09:53:00,
2013-05-01 05:03:00,72.0,-99.9,29.73,SE,126,8.0,9.0,-999,-99.99,,,-99.99,,2013-05-01 10:03:00,
2013-05-01 05:12:00,72.0,-99.9,29.73,SE,130,7.0,8.0,-999,-99.99,,,-99.99,,2013-05-01 10:12:00,
2013-05-01 05:22:00,72.0,-99.9,29.73,SE,136,8.0,9.0,-999,-99.99,,,-99.99,,2013-05-01 10:22:00,
2013-05-01 05:33:00,72.0,-99.9,29.74,SE,133,9.0,10.0,-999,-99.99,,,-99.99,,2013-05-01 10:33:00,
2013-05-01 05:42:00,72.0,-99.9,29.74,SE,133,9.0,10.0,-999,-99.99,,,-99.99,,2013-05-01 10:42:00,
2013-05-01 05:53:00,72.0,-99.9,29.74,SE,142,8.0,9.0,-999,-99.99,,,-99.99,,2013-05-01 10:53:00,
2013-05-01 06:03:00,72.0,-99.9,29.75,SSE,159,7.0,8.0,-999,-99.99,,,-99.99,,2013-05-01 11:03:00,
2013-05-01 06:11:00,72.0,-99.9,29.75,SSE,161,7.0,8.0,-999,-99.99,,,-99.99,,2013-05-01 11:11:00,
2013-05-01 06:22:00,72.0,-99.9,29.75,SSE,162,8.0,8.0,-999,-99.99,,,-99.99,,2013-05-01 11:22:00,
2013-05-01 06:32:00,72.0,-99.9,29.75,SSE,151,6.0,8.0,-999,-99.99,,,-99.99,,2013-05-01 11:32:00,
2013-05-01 06:42:00,72.0,-99.9,29.75,SE,131,6.0,7.0,-999,-99.99,,,-99.99,,2013-05-01 11:42:00,
2013-05-01 06:52:00,72.0,-99.9,29.76,SE,141,6.0,6.0,-999,-99.99,,,-99.99,,2013-05-01 11:52:00,
2013-05-01 07:02:00,72.0,-99.9,29.77,ESE,111,5.0,5.0,-999,-99.99,,,-99.99,,2013-05-01 12:02:00,
2013-05-01 07:11:00,72.0,-99.9,29.77,ESE,104,5.0,6.0,-999,-99.99,,,-99.99,,2013-05-01 12:11:00,
2013-05-01 07:22:00,72.0,-99.9,29.78,ENE,73,5.0,6.0,-999,-99.99,,,-99.99,,2013-05-01 12:22:00,
2013-05-01 07:32:00,72.0,-99.9,29.79,NE,55,6.0,7.0,-999,-99.99,,,-99.99,,2013-05-01 12:32:00,
2013-05-01 07:42:00,72.0,-99.9,29.79,ENE,69,6.0,7.0,-999,-99.99,,,-99.99,,2013-05-01 12:42:00,
2013-05-01 07:52:00,71.0,-99.9,29.80,East,92,6.0,9.0,-999,-99.99,,,-99.99,,2013-05-01 12:52:00,
2013-05-01 08:02:00,71.0,-99.9,29.80,East,96,6.0,8.0,-999,-99.99,,,-99.99,,2013-05-01 13:02:00,
2013-05-01 08:11:00,71.0,-99.9,29.80,ESE,113,6.0,7.0,-999,-99.99,,,-99.99,,2013-05-01 13:11:00,
2013-05-01 08:22:00,71.0,-99.9,29.81,ESE,117,8.0,9.0,-999,-99.99,,,-99.99,,2013-05-01 13:22:00,
2013-05-01 08:32:00,71.0,-99.9,29.80,ESE,116,7.0,7.0,-999,-99.99,,,-99.99,,2013-05-01 13:32:00,
2013-05-01 08:42:00,71.0,-99.9,29.81,ESE,103,6.0,8.0,-999,-99.99,,,-99.99,,2013-05-01 13:42:00,
2013-05-01 08:52:00,71.0,-99.9,29.81,East,96,6.0,7.0,-999,-99.99,,,-99.99,,2013-05-01 13:52:00,
2013-05-01 09:02:00,71.0,-99.9,29.81,ESE,104,5.0,6.0,-999,-99.99,,,-99.99,,2013-05-01 14:02:00,
2013-05-01 09:11:00,71.0,-99.9,29.81,ESE,108,4.0,5.0,-999,-99.99,,,-99.99,,2013-05-01 14:11:00,
2013-05-01 09:22:00,71.0,-99.9,29.81,SE,124,5.0,6.0,-999,-99.99,,,-99.99,,2013-05-01 14:22:00,
2013-05-01 09:32:00,71.0,-99.9,29.81,SSE,151,6.0,7.0,-999,-99.99,,,-99.99,,2013-05-01 14:32:00,
2013-05-01 09:42:00,71.0,-99.9,29.81,SE,142,5.0,7.0,-999,-99.99,,,-99.99,,2013-05-01 14:42:00,
2013-05-01 09:52:00,71.0,-99.9,29.81,SE,142,5.0,6.0,-999,-99.99,,,-99.99,,2013-05-01 14:52:00,
2013-05-01 10:01:00,71.0,-99.9,29.82,SE,131,5.0,5.0,-999,-99.99,,,-99.99,,2013-05-01 15:01:00,
2013-05-01 10:12:00,72.0,-99.9,29.82,SE,130,5.0,6.0,-999,-99.99,,,-99.99,,2013-05-01 15:12:00,
2013-05-01 10:22:00,72.0,-99.9,29.82,East,101,4.0,5.0,-999,-99.99,,,-99.99,,2013-05-01 15:22:00,
2013-05-01 10:33:00,72.0,-99.9,29.83,East,79,6.0,6.0,-999,-99.99,,,-99.99,,2013-05-01 15:33:00,
2013-05-01 10:43:00,72.0,-99.9,29.83,East,81,7.0,8.0,-999,-99.99,,,-99.99,,2013-05-01 15:43:00,
2013-05-01 10:53:00,72.0,-99.9,29.83,East,95,7.0,8.0,-999,-99.99,,,-99.99,,2013-05-01 15:53:00,
2013-05-01 11:03:00,72.0,-99.9,29.83,East,86,9.0,9.0,-999,-99.99,,,-99.99,,2013-05-01 16:03:00,
2013-05-01 11:12:00,72.0,-99.9,29.83,East,89,8.0,9.0,-999,-99.99,,,-99.99,,2013-05-01 16:12:00,
2013-05-01 11:22:00,72.0,-99.9,29.83,East,80,10.0,11.0,-999,-99.99,,,-99.99,,2013-05-01 16:22:00,
2013-05-01 11:32:00,73.0,-99.9,29.83,ENE,78,11.0,12.0,-999,-99.99,,,-99.99,,2013-05-01 16:32:00,
2013-05-01 11:42:00,73.0,-99.9,29.84,East,80,11.0,12.0,-999,-99.99,,,-99.99,,2013-05-01 16:42:00,
2013-05-01 11:53:00,73.0,-99.9,29.84,East,80,11.0,13.0,-999,-99.99,,,-99.99,,2013-05-01 16:53:00,
2013-05-01 12:02:00,73.0,-99.9,29.83,ENE,78,12.0,14.0,-999,-99.99,,,-99.99,,2013-05-01 17:02:00,
2013-05-01 12:12:00,73.0,-99.9,29.83,East,80,12.0,13.0,-999,-99.99,,,-99.99,,2013-05-01 17:12:00,
2013-05-01 12:22:00,73.0,-99.9,29.83,ENE,75,13.0,14.0,-999,-99.99,,,-99.99,,2013-05-01 17:22:00,
2013-05-01 12:32:00,73.0,-99.9,29.83,ENE,76,13.0,14.0,-999,-99.99,,,-99.99,,2013-05-01 17:32:00,
2013-05-01 12:42:00,73.0,-99.9,29.83,ENE,75,13.0,14.0,-999,-99.99,,,-99.99,,2013-05-01 17:42:00,
2013-05-01 12:52:00,73.0,-99.9,29.83,ENE,75,13.0,15.0,-999,-99.99,,,-99.99,,2013-05-01 17:52:00,
2013-05-01 13:02:00,73.0,-99.9,29.83,East,80,13.0,15.0,-999,-99.99,,,-99.99,,2013-05-01 18:02:00,
2013-05-01 13:12:00,73.0,-99.9,29.82,East,82,13.0,15.0,-999,-99.99,,,-99.99,,2013-05-01 18:12:00,
2013-05-01 13:22:00,73.0,-99.9,29.82,ENE,78,13.0,14.0,-999,-99.99,,,-99.99,,2013-05-01 18:22:00,
2013-05-01 13:32:00,73.0,-99.9,29.82,East,81,12.0,14.0,-999,-99.99,,,-99.99,,2013-05-01 18:32:00,
2013-05-01 13:42:00,74.0,-99.9,29.82,East,80,12.0,14.0,-999,-99.99,,,-99.99,,2013-05-01 18:42:00,
2013-05-01 13:52:00,73.0,-99.9,29.81,ENE,75,12.0,14.0,-999,-99.99,,,-99.99,,2013-05-01 18:52:00,
2013-05-01 14:02:00,74.0,-99.9,29.81,ENE,74,13.0,14.0,-999,-99.99,,,-99.99,,2013-05-01 19:02:00,
2013-05-01 14:12:00,74.0,-99.9,29.81,ENE,72,13.0,15.0,-999,-99.99,,,-99.99,,2013-05-01 19:12:00,
2013-05-01 14:22:00,74.0,-99.9,29.81,ENE,69,12.0,14.0,-999,-99.99,,,-99.99,,2013-05-01 19:22:00,
2013-05-01 14:32:00,74.0,-99.9,29.81,ENE,72,13.0,14.0,-999,-99.99,,,-99.99,,2013-05-01 19:32:00,
2013-05-01 14:43:00,73.0,-99.9,29.81,ENE,74,12.0,14.0,-999,-99.99,,,-99.99,,2013-05-01 19:43:00,
2013-05-01 14:52:00,73.0,-99.9,29.80,ENE,74,12.0,14.0,-999,-99.99,,,-99.99,,2013-05-01 19:52:00,
2013-05-01 15:02:00,74.0,-99.9,29.81,ENE,74,13.0,15.0,-999,-99.99,,,-99.99,,2013-05-01 20:02:00,
2013-05-01 15:11:00,74.0,-99.9,29.81,ENE,69,13.0,14.0,-999,-99.99,,,-99.99,,2013-05-01 20:11:00,
2013-05-01 15:22:00,74.0,-99.9,29.80,ENE,71,14.0,15.0,-999,-99.99,,,-99.99,,2013-05-01 20:22:00,
2013-05-01 15:32:00,74.0,-99.9,29.80,ENE,72,13.0,16.0,-999,-99.99,,,-99.99,,2013-05-01 20:32:00,
2013-05-01 15:42:00,74.0,-99.9,29.80,ENE,68,14.0,16.0,-999,-99.99,,,-99.99,,2013-05-01 20:42:00,
2013-05-01 15:52:00,74.0,-99.9,29.80,ENE,73,14.0,15.0,-999,-99.99,,,-99.99,,2013-05-01 20:52:00,
2013-05-01 16:01:00,74.0,-99.9,29.80,ENE,70,14.0,15.0,-999,-99.99,,,-99.99,,2013-05-01 21:01:00,
2013-05-01 16:11:00,74.0,-99.9,29.80,ENE,67,13.0,15.0,-999,-99.99,,,-99.99,,2013-05-01 21:11:00,
2013-05-01 16:22:00,74.0,-99.9,29.80,ENE,66,13.0,15.0,-999,-99.99,,,-99.99,,2013-05-01 21:22:00,
2013-05-01 16:32:00,74.0,-99.9,29.80,ENE,69,12.0,13.0,-999,-99.99,,,-99.99,,2013-05-01 21:32:00,
2013-05-01 16:43:00,74.0,-99.9,29.80,ENE,68,12.0,14.0,-999,-99.99,,,-99.99,,2013-05-01 21:43:00,
2013-05-01 16:53:00,74.0,-99.9,29.80,ENE,66,11.0,12.0,-999,-99.99,,,-99.99,,2013-05-01 21:53:00,
2013-05-01 17:03:00,74.0,-99.9,29.79,ENE,70,13.0,13.0,-999,-99.99,,,-99.99,,2013-05-01 22:03:00,
2013-05-01 17:13:00,74.0,-99.9,29.79,ENE,70,13.0,15.0,-999,-99.99,,,-99.99,,2013-05-01 22:13:00,
2013-05-01 17:23:00,74.0,-99.9,29.79,ENE,69,12.0,14.0,-999,-99.99,,,-99.99,,2013-05-01 22:23:00,
2013-05-01 17:33:00,74.0,-99.9,29.79,ENE,70,10.0,13.0,-999,-99.99,,,-99.99,,2013-05-01 22:33:00,
2013-05-01 17:42:00,74.0,-99.9,29.80,ENE,67,11.0,12.0,-999,-99.99,,,-99.99,,2013-05-01 22:42:00,
2013-05-01 17:53:00,74.0,-99.9,29.79,ENE,67,11.0,13.0,-999,-99.99,,,-99.99,,2013-05-01 22:53:00,
2013-05-01 18:02:00,74.0,-99.9,29.80,ENE,65,12.0,13.0,-999,-99.99,,,-99.99,,2013-05-01 23:02:00,
2013-05-01 18:12:00,74.0,-99.9,29.80,ENE,68,12.0,13.0,-999,-99.99,,,-99.99,,2013-05-01 23:12:00,
2013-05-01 18:22:00,74.0,-99.9,29.80,ENE,62,11.0,13.0,-999,-99.99,,,-99.99,,2013-05-01 23:22:00,
2013-05-01 18:32:00,74.0,-99.9,29.80,ENE,63,12.0,13.0,-999,-99.99,,,-99.99,,2013-05-01 23:32:00,
2013-05-01 18:42:00,74.0,-99.9,29.80,ENE,60,10.0,13.0,-999,-99.99,,,-99.99,,2013-05-01 23:42:00,
2013-05-01 18:52:00,74.0,-99.9,29.80,ENE,60,11.0,13.0,-999,-99.99,,,-99.99,,2013-05-01 23:52:00,
2013-05-01 19:01:00,74.0,-99.9,29.80,ENE,67,11.0,12.0,-999,-99.99,,,-99.99,,2013-05-02 00:01:00,
2013-05-01 19:11:00,74.0,-99.9,29.80,ENE,67,10.0,12.0,-999,-99.99,,,-99.99,,2013-05-02 00:11:00,
2013-05-01 19:22:00,74.0,-99.9,29.80,ENE,67,11.0,12.0,-999,-99.99,,,-99.99,,2013-05-02 00:22:00,
2013-05-01 19:32:00,74.0,-99.9,29.80,ENE,70,11.0,13.0,-999,-99.99,,,-99.99,,2013-05-02 00:32:00,
2013-05-01 19:42:00,73.0,-99.9,29.80,ENE,72,11.0,12.0,-999,-99.99,,,-99.99,,2013-05-02 00:42:00,
2013-05-01 19:52:00,73.0,-99.9,29.80,ENE,74,10.0,12.0,-999,-99.99,,,-99.99,,2013-05-02 00:52:00,
2013-05-01 20:01:00,73.0,-99.9,29.80,ENE,75,11.0,12.0,-999,-99.99,,,-99.99,,2013-05-02 01:01:00,
2013-05-01 20:11:00,73.0,-99.9,29.81,East,79,11.0,12.0,-999,-99.99,,,-99.99,,2013-05-02 01:11:00,
2013-05-01 20:22:00,73.0,-99.9,29.81,ENE,73,12.0,13.0,-999,-99.99,,,-99.99,,2013-05-02 01:22:00,
2013-05-01 20:32:00,73.0,-99.9,29.82,ENE,74,12.0,14.0,-999,-99.99,,,-99.99,,2013-05-02 01:32:00,
2013-05-01 20:42:00,73.0,-99.9,29.82,ENE,76,12.0,13.0,-999,-99.99,,,-99.99,,2013-05-02 01:42:00,
2013-05-01 20:52:00,73.0,-99.9,29.82,ENE,72,12.0,14.0,-999,-99.99,,,-99.99,,2013-05-02 01:52:00,
2013-05-01 21:02:00,73.0,-99.9,29.82,ENE,78,12.0,15.0,-999,-99.99,,,-99.99,,2013-05-02 02:02:00,
2013-05-01 21:12:00,73.0,-99.9,29.82,ENE,78,13.0,14.0,-999,-99.99,,,-99.99,,2013-05-02 02:12:00,
2013-05-01 21:22:00,73.0,-99.9,29.82,ENE,76,13.0,15.0,-999,-99.99,,,-99.99,,2013-05-02 02:22:00,
2013-05-01 21:32:00,73.0,-99.9,29.82,ENE,78,13.0,15.0,-999,-99.99,,,-99.99,,2013-05-02 02:32:00,
2013-05-01 21:42:00,73.0,-99.9,29.82,ENE,78,13.0,15.0,-999,-99.99,,,-99.99,,2013-05-02 02:42:00,
2013-05-01 21:52:00,73.0,-99.9,29.82,ENE,78,13.0,15.0,-999,-99.99,,,-99.99,,2013-05-02 02:52:00,
2013-05-01 22:01:00,73.0,-99.9,29.83,ENE,78,14.0,16.0,-999,-99.99,,,-99.99,,2013-05-02 03:01:00,
2013-05-01 22:11:00,73.0,-99.9,29.83,ENE,76,14.0,17.0,-999,-99.99,,,-99.99,,2013-05-02 03:11:00,
2013-05-01 22:22:00,73.0,-99.9,29.84,ENE,74,13.0,15.0,-999,-99.99,,,-99.99,,2013-05-02 03:22:00,
2013-05-01 22:33:00,73.0,-99.9,29.84,ENE,77,15.0,17.0,-999,-99.99,,,-99.99,,2013-05-02 03:33:00,
2013-05-01 22:43:00,73.0,-99.9,29.84,ENE,78,14.0,16.0,-999,-99.99,,,-99.99,,2013-05-02 03:43:00,
2013-05-01 22:53:00,73.0,-99.9,29.84,East,79,15.0,17.0,-999,-99.99,,,-99.99,,2013-05-02 03:53:00,
2013-05-01 23:03:00,73.0,-99.9,29.85,ENE,77,15.0,16.0,-999,-99.99,,,-99.99,,2013-05-02 04:03:00,
2013-05-01 23:12:00,73.0,-99.9,29.85,ENE,73,15.0,17.0,-999,-99.99,,,-99.99,,2013-05-02 04:12:00,
2013-05-01 23:23:00,73.0,-99.9,29.85,ENE,70,13.0,15.0,-999,-99.99,,,-99.99,,2013-05-02 04:23:00,
2013-05-01 23:33:00,73.0,-99.9,29.86,East,79,14.0,16.0,-999,-99.99,,,-99.99,,2013-05-02 04:33:00,
2013-05-01 23:43:00,73.0,-99.9,29.86,ENE,77,13.0,15.0,-999,-99.99,,,-99.99,,2013-05-02 04:43:00,
2013-05-01 23:52:00,73.0,-99.9,29.86,East,80,13.0,15.0,-999,-99.99,,,-99.99,,2013-05-02 04:52:00,